Baton Rouge, LA

11:59 PM CST on January 23, 2018 (GMT -0600)
Baton Rouge Metro-Ryan

Weather History for KBTR - April, 2014

Change the Weather History Date:

Friday, April 25, 2014

  Actual Average Record
Temperature  
Mean Temperature 76 °F 70 °F  
Max Temperature 87 °F 81 °F 89 °F (1967)
Min Temperature 64 °F 59 °F 42 °F (1910)
Degree Days  
Heating Degree Days 0 1  
Month to date heating degree days 51 49  
Since 1 July heating degree days 1978 1551  
Cooling Degree Days 11 6  
Month to date cooling degree days 108 109  
Year to date cooling degree days 154 198  
Growing Degree Days 26 (Base 50)    
Moisture  
Dew Point 64 °F    
Average Humidity 63    
Maximum Humidity 90    
Minimum Humidity 36    
Precipitation  
Precipitation 0.00 in 0.14 in 2.24 in (1926)
Month to date precipitation 3.51 3.77  
Year to date precipitation 16.00 18.94  
Snow  
Snow 0.00 in - - ()
Month to date snowfall 0.0  
Since 1 July snowfall 0.4  
Snow Depth 0.00 in    
Sea Level Pressure  
Sea Level Pressure 29.96 in    
Wind  
Wind Speed 5 mph (West)    
Max Wind Speed 10 mph    
Max Gust Speed 16 mph    
Visibility 9 miles    
Events      
T = Trace of Precipitation, MM = Missing Value Source: NWS Daily Summary

Daily Weather History Graph

Daily Weather History Graph

Search for Another Location

Airport or City:

Trip Planner

Search our weather history database for the weather conditions in past years. The results will help you decide how hot, cold, wet, or windy it might be!

Date:

Astronomy

Apr. 25, 2014 Rise Set
Actual Time 6:26 AM CDT 7:38 PM CDT
Civil Twilight 6:01 AM CDT 8:04 PM CDT
Nautical Twilight 5:31 AM CDT 8:34 PM CDT
Astronomical Twilight 5:00 AM CDT 9:05 PM CDT
Moon 3:58 AM CDT (4/25) 4:16 PM CDT (4/25)
Length of Visible Light 14h 02m
Length of Day
13h 12m
Waning Crescent, 15% of the Moon is Illuminated
Apr 25
Waning Crescent
Apr 29
New
May 6
First Quarter
May 14
Full
May 21
Last Quarter

Hourly Weather History & Observations

Time (CDT) Temp. Heat Index Dew Point Humidity Pressure Visibility Wind Dir Wind Speed Gust Speed Precip Events Conditions
12:06 AM 73.0 °F - 66.0 °F 79% 29.93 in 10.0 mi SW 11.5 mph - N/A   Overcast
12:17 AM 73.0 °F - 66.0 °F 79% 29.93 in 10.0 mi SW 11.5 mph - N/A   Overcast
12:53 AM 73.0 °F - 66.9 °F 81% 29.93 in 10.0 mi SW 8.1 mph - N/A   Overcast
1:44 AM 72.0 °F - 66.9 °F 84% 29.92 in 10.0 mi SW 8.1 mph - N/A   Overcast
1:53 AM 72.0 °F - 66.9 °F 84% 29.91 in 10.0 mi SW 8.1 mph - N/A   Overcast
2:53 AM 71.1 °F - 66.9 °F 87% 29.90 in 10.0 mi SW 8.1 mph - N/A   Clear
3:53 AM 71.1 °F - 66.9 °F 87% 29.91 in 10.0 mi SW 5.8 mph - N/A   Clear
4:53 AM 70.0 °F - 66.9 °F 90% 29.94 in 8.0 mi WNW 4.6 mph - N/A   Overcast
5:53 AM 69.1 °F - 66.0 °F 90% 29.95 in 7.0 mi West 4.6 mph - N/A   Mostly Cloudy
6:15 AM 70.0 °F - 66.9 °F 90% 29.96 in 7.0 mi WSW 5.8 mph - N/A   Mostly Cloudy
6:53 AM 70.0 °F - 66.9 °F 90% 29.97 in 6.0 mi West 8.1 mph - N/A   Mostly Cloudy
7:39 AM 72.0 °F - 66.9 °F 84% 29.99 in 7.0 mi West 5.8 mph - N/A   Mostly Cloudy
7:51 AM 71.6 °F - 66.2 °F 83% 29.99 in 7.0 mi West 8.1 mph - N/A   Mostly Cloudy
7:53 AM 72.0 °F - 66.9 °F 84% 29.99 in 7.0 mi West 8.1 mph - N/A   Mostly Cloudy
8:53 AM 73.0 °F - 66.0 °F 79% 30.00 in 9.0 mi WNW 5.8 mph - N/A   Mostly Cloudy
9:07 AM 75.0 °F - 66.0 °F 73% 30.00 in 7.0 mi Variable 5.8 mph - N/A   Mostly Cloudy
9:53 AM 75.9 °F - 64.9 °F 69% 30.00 in 7.0 mi NW 3.5 mph - N/A   Mostly Cloudy
10:00 AM 77.0 °F - 64.9 °F 66% 30.00 in 8.0 mi Calm Calm - N/A   Scattered Clouds
10:53 AM 80.1 °F 81.7 °F 64.0 °F 58% 30.00 in 8.0 mi Calm Calm - N/A   Scattered Clouds
11:53 AM 82.0 °F 83.1 °F 63.0 °F 52% 30.00 in 10.0 mi NNW 5.8 mph - N/A   Scattered Clouds
12:53 PM 82.9 °F 84.4 °F 64.0 °F 53% 29.99 in 10.0 mi West 6.9 mph - N/A   Scattered Clouds
1:53 PM 84.9 °F 85.4 °F 62.1 °F 46% 29.97 in 10.0 mi WNW 8.1 mph - N/A   Scattered Clouds
2:53 PM 86.0 °F 85.7 °F 60.1 °F 41% 29.96 in 10.0 mi Variable 4.6 mph - N/A   Scattered Clouds
3:53 PM 87.1 °F 87.0 °F 61.0 °F 41% 29.94 in 10.0 mi Variable 5.8 mph - N/A   Scattered Clouds
4:53 PM 87.1 °F 86.1 °F 57.9 °F 37% 29.93 in 10.0 mi Variable 3.5 mph - N/A   Clear
5:53 PM 84.9 °F 84.2 °F 57.9 °F 40% 29.91 in 10.0 mi NNW 5.8 mph - N/A   Clear
6:53 PM 82.0 °F 82.0 °F 57.9 °F 44% 29.91 in 10.0 mi NNW 3.5 mph - N/A   Clear
7:53 PM 77.0 °F - 57.0 °F 50% 29.92 in 10.0 mi NE 3.5 mph - N/A   Clear
8:53 PM 72.0 °F - 60.1 °F 66% 29.94 in 10.0 mi Calm Calm - N/A   Clear
9:53 PM 70.0 °F - 57.9 °F 65% 29.96 in 10.0 mi Calm Calm - N/A   Clear
10:53 PM 66.0 °F - 59.0 °F 78% 29.96 in 10.0 mi Calm Calm - N/A   Clear
11:53 PM 69.1 °F - 55.9 °F 63% 29.97 in 10.0 mi SSE 5.8 mph - N/A   Clear